GLO1777 SBFN-SBRF

Flight info

Callsign GLO1777
Flight time 0h 52m
Altitude 34000
Route TOMEK DCT UBRUT
Aircraft B738/M-SDGIJ1LRWY/SB1

Departure

Time 2026-04-22 19:57
Airport Fernando de Noronha Airport (SBFN)

Arrival

Time 2026-04-22 20:50
Airport Recife/Guararapes - Gilberto Freyre International Airport (SBRF)
Time Latitude Longitude Altitude Speed Heading
2026-04-22 19:35 -3.85589 -32.42831 184 ft 0 kts 183°
2026-04-22 19:50 -3.85582 -32.42832 183 ft 2 kts 157°
2026-04-22 19:50 -3.85569 -32.42837 183 ft 1 kts 162°
2026-04-22 19:50 -3.85560 -32.42837 183 ft 1 kts 218°
2026-04-22 19:50 -3.85555 -32.42830 183 ft 0 kts 267°
2026-04-22 19:51 -3.85555 -32.42824 183 ft 1 kts 275°
2026-04-22 19:51 -3.85556 -32.42822 183 ft 0 kts 273°
2026-04-22 19:54 -3.85555 -32.42833 184 ft 4 kts 273°
2026-04-22 19:54 -3.85543 -32.42877 184 ft 9 kts 302°
2026-04-22 19:54 -3.85487 -32.42926 185 ft 12 kts 325°
2026-04-22 19:55 -3.85413 -32.42982 186 ft 14 kts 315°
2026-04-22 19:55 -3.85421 -32.43065 187 ft 11 kts 237°
2026-04-22 19:55 -3.85401 -32.43090 188 ft 2 kts 20°
2026-04-22 19:55 -3.85393 -32.43062 187 ft 4 kts 92°
2026-04-22 19:56 -3.85393 -32.43061 187 ft 0 kts 92°
2026-04-22 19:56 -3.85399 -32.42956 186 ft 51 kts 94°
2026-04-22 19:57 -3.85443 -32.42305 183 ft 131 kts 94°
2026-04-22 19:57 -3.85514 -32.41187 377 ft 179 kts 95°
2026-04-22 19:57 -3.85622 -32.39983 1291 ft 178 kts 97°
2026-04-22 19:57 -3.85756 -32.38786 2142 ft 178 kts 96°
2026-04-22 19:58 -3.86112 -32.37588 2681 ft 190 kts 124°
2026-04-22 19:58 -3.87194 -32.36731 3149 ft 210 kts 159°
2026-04-22 19:58 -3.88682 -32.36472 3703 ft 228 kts 181°
2026-04-22 19:58 -3.90306 -32.36739 4282 ft 245 kts 194°
2026-04-22 19:59 -3.92001 -32.37194 4873 ft 262 kts 194°
2026-04-22 20:00 -3.97198 -32.38476 6890 ft 289 kts 193°
2026-04-22 20:00 -3.99162 -32.38932 7645 ft 296 kts 192°
2026-04-22 20:01 -4.01185 -32.39404 8472 ft 299 kts 192°
2026-04-22 20:01 -4.03210 -32.39879 9292 ft 302 kts 193°
2026-04-22 20:01 -4.05271 -32.40362 10058 ft 307 kts 192°
2026-04-22 20:01 -4.07344 -32.40848 10849 ft 309 kts 192°
2026-04-22 20:02 -4.09432 -32.41337 11661 ft 311 kts 191°
2026-04-22 20:02 -4.11547 -32.41833 12440 ft 312 kts 191°
2026-04-22 20:02 -4.13681 -32.42337 13191 ft 315 kts 190°
2026-04-22 20:02 -4.15810 -32.42836 13914 ft 317 kts 190°
2026-04-22 20:03 -4.17957 -32.43338 14617 ft 319 kts 190°
2026-04-22 20:03 -4.20121 -32.43847 15301 ft 321 kts 190°
2026-04-22 20:03 -4.22316 -32.44365 15975 ft 323 kts 190°
2026-04-22 20:03 -4.24495 -32.44879 16629 ft 325 kts 190°
2026-04-22 20:04 -4.26698 -32.45396 17279 ft 326 kts 190°
2026-04-22 20:04 -4.28965 -32.45925 17611 ft 340 kts 190°
2026-04-22 20:04 -4.31311 -32.46472 17892 ft 354 kts 190°
2026-04-22 20:04 -4.33762 -32.47045 18166 ft 367 kts 190°
2026-04-22 20:05 -4.36337 -32.47648 18402 ft 382 kts 191°
2026-04-22 20:05 -4.38926 -32.48337 18630 ft 396 kts 196°
2026-04-22 20:05 -4.41453 -32.49552 19006 ft 408 kts 212°
2026-04-22 20:05 -4.43615 -32.51442 19549 ft 414 kts 225°
2026-04-22 20:06 -4.45395 -32.53743 20106 ft 419 kts 236°
2026-04-22 20:06 -4.46763 -32.56316 20666 ft 422 kts 244°
2026-04-22 20:06 -4.47896 -32.59007 21220 ft 424 kts 247°
2026-04-22 20:06 -4.48979 -32.61742 21758 ft 426 kts 247°
2026-04-22 20:07 -4.50094 -32.64515 22300 ft 427 kts 247°
2026-04-22 20:07 -4.51245 -32.67270 22776 ft 430 kts 246°
2026-04-22 20:07 -4.52431 -32.70002 23152 ft 435 kts 245°
2026-04-22 20:07 -4.53678 -32.72784 23587 ft 438 kts 245°
2026-04-22 20:08 -4.53852 -32.73169 23649 ft 438 kts 245°
2026-04-22 20:08 -4.54728 -32.75081 23944 ft 441 kts 245°
2026-04-22 20:08 -4.55093 -32.75872 24058 ft 442 kts 245°
2026-04-22 20:08 -4.55320 -32.76362 24124 ft 443 kts 245°
2026-04-22 20:09 -4.55774 -32.77341 24241 ft 445 kts 244°
2026-04-22 20:09 -4.56181 -32.78213 24346 ft 446 kts 244°
2026-04-22 20:09 -4.56403 -32.78687 24405 ft 447 kts 244°
2026-04-22 20:09 -4.56675 -32.79258 24481 ft 448 kts 244°
2026-04-22 20:10 -4.57940 -32.81751 24849 ft 450 kts 240°
2026-04-22 20:10 -4.59644 -32.84393 25244 ft 453 kts 232°
2026-04-22 20:10 -4.61763 -32.86736 25662 ft 454 kts 222°
2026-04-22 20:10 -4.62206 -32.87138 25746 ft 455 kts 220°
2026-04-22 20:11 -4.64384 -32.88798 26150 ft 454 kts 213°
2026-04-22 20:11 -4.67092 -32.90421 26674 ft 453 kts 208°
2026-04-22 20:11 -4.69886 -32.91890 27178 ft 453 kts 206°
2026-04-22 20:11 -4.72715 -32.93324 27715 ft 451 kts 206°
2026-04-22 20:12 -4.75482 -32.94744 28224 ft 450 kts 206°
2026-04-22 20:12 -4.78266 -32.96215 28697 ft 450 kts 207°
2026-04-22 20:12 -4.80117 -32.97217 28975 ft 451 kts 207°
2026-04-22 20:12 -4.83814 -32.99270 29070 ft 465 kts 208°
2026-04-22 20:13 -4.86674 -33.00891 29105 ft 475 kts 208°
2026-04-22 20:13 -4.92537 -33.04266 29366 ft 490 kts 209°
2026-04-22 20:13 -4.95462 -33.05964 29810 ft 490 kts 209°
2026-04-22 20:14 -4.98440 -33.07698 30329 ft 489 kts 209°
2026-04-22 20:14 -5.01358 -33.09400 30894 ft 486 kts 209°
2026-04-22 20:14 -5.04295 -33.11115 31473 ft 483 kts 209°
2026-04-22 20:14 -5.07175 -33.12795 31994 ft 481 kts 208°
2026-04-22 20:15 -5.10044 -33.14469 32478 ft 479 kts 209°
2026-04-22 20:15 -5.12922 -33.16149 32946 ft 478 kts 208°
2026-04-22 20:15 -5.15834 -33.17847 33389 ft 478 kts 208°
2026-04-22 20:15 -5.18684 -33.19509 33796 ft 478 kts 208°
2026-04-22 20:16 -5.21603 -33.21211 33888 ft 482 kts 208°
2026-04-22 20:16 -5.27364 -33.24571 33883 ft 477 kts 208°
2026-04-22 20:17 -5.33132 -33.27937 33883 ft 479 kts 208°
2026-04-22 20:17 -5.38901 -33.31309 33884 ft 480 kts 210°
2026-04-22 20:18 -5.44458 -33.35072 33890 ft 480 kts 216°
2026-04-22 20:18 -5.49741 -33.39143 33894 ft 481 kts 217°
2026-04-22 20:19 -5.55034 -33.43298 33898 ft 481 kts 217°
2026-04-22 20:19 -5.60332 -33.47420 33903 ft 481 kts 217°
2026-04-22 20:20 -5.65645 -33.51516 33903 ft 481 kts 216°
2026-04-22 20:20 -5.70964 -33.55592 33903 ft 481 kts 216°
2026-04-22 20:21 -5.76286 -33.59662 33905 ft 483 kts 216°
2026-04-22 20:21 -5.81634 -33.63751 33904 ft 481 kts 216°
2026-04-22 20:22 -5.86970 -33.67828 33904 ft 483 kts 216°
2026-04-22 20:22 -5.92352 -33.71942 33903 ft 482 kts 217°
2026-04-22 20:23 -5.97676 -33.76014 33901 ft 483 kts 217°
2026-04-22 20:23 -6.03047 -33.80123 33900 ft 482 kts 217°
2026-04-22 20:24 -6.08365 -33.84191 33899 ft 483 kts 217°
2026-04-22 20:24 -6.13747 -33.88308 33900 ft 484 kts 217°
2026-04-22 20:25 -6.19085 -33.92394 33902 ft 482 kts 217°
2026-04-22 20:25 -6.24458 -33.96507 33903 ft 483 kts 217°
2026-04-22 20:26 -6.29793 -34.00593 33904 ft 481 kts 217°
2026-04-22 20:26 -6.35120 -34.04674 33901 ft 481 kts 217°
2026-04-22 20:27 -6.40448 -34.08758 33897 ft 481 kts 217°
2026-04-22 20:27 -6.45674 -34.12764 33895 ft 461 kts 217°
2026-04-22 20:27 -6.48196 -34.14699 33791 ft 449 kts 217°
2026-04-22 20:28 -6.50662 -34.16590 33468 ft 442 kts 217°
2026-04-22 20:28 -6.53098 -34.18459 33024 ft 447 kts 217°
2026-04-22 20:28 -6.55586 -34.20367 32517 ft 452 kts 217°
2026-04-22 20:28 -6.58092 -34.22289 31987 ft 450 kts 217°
2026-04-22 20:29 -6.60592 -34.24206 31445 ft 448 kts 217°
2026-04-22 20:29 -6.63057 -34.26098 30905 ft 446 kts 217°
2026-04-22 20:29 -6.65500 -34.27971 30364 ft 443 kts 217°
2026-04-22 20:29 -6.67947 -34.29849 29825 ft 441 kts 217°
2026-04-22 20:30 -6.70379 -34.31715 29288 ft 438 kts 218°
2026-04-22 20:30 -6.72804 -34.33577 28754 ft 436 kts 218°
2026-04-22 20:30 -6.75220 -34.35431 28223 ft 433 kts 217°
2026-04-22 20:30 -6.77619 -34.37274 27680 ft 431 kts 217°
2026-04-22 20:31 -6.79976 -34.39084 27147 ft 429 kts 217°
2026-04-22 20:31 -6.82350 -34.40908 26613 ft 426 kts 217°
2026-04-22 20:31 -6.84698 -34.42712 26082 ft 424 kts 217°
2026-04-22 20:31 -6.87031 -34.44505 25554 ft 421 kts 217°
2026-04-22 20:32 -6.89354 -34.46291 25029 ft 419 kts 217°
2026-04-22 20:32 -6.91680 -34.48079 24498 ft 416 kts 217°
2026-04-22 20:32 -6.93952 -34.49825 23981 ft 414 kts 217°
2026-04-22 20:32 -6.96256 -34.51596 23459 ft 411 kts 217°
2026-04-22 20:33 -6.98514 -34.53331 22947 ft 408 kts 217°
2026-04-22 20:33 -7.00740 -34.55044 22441 ft 405 kts 217°
2026-04-22 20:33 -7.02995 -34.56778 21941 ft 403 kts 217°
2026-04-22 20:33 -7.05206 -34.58479 21436 ft 400 kts 217°
2026-04-22 20:34 -7.07419 -34.60181 20931 ft 398 kts 217°
2026-04-22 20:34 -7.09605 -34.61864 20427 ft 397 kts 216°
2026-04-22 20:34 -7.11799 -34.63553 19913 ft 395 kts 216°
2026-04-22 20:34 -7.13986 -34.65236 19413 ft 392 kts 216°
2026-04-22 20:35 -7.16149 -34.66900 18912 ft 390 kts 216°
2026-04-22 20:35 -7.18301 -34.68557 18421 ft 387 kts 216°
2026-04-22 20:35 -7.20442 -34.70208 17915 ft 385 kts 216°
2026-04-22 20:35 -7.22560 -34.71841 17431 ft 383 kts 216°
2026-04-22 20:36 -7.24684 -34.73483 16943 ft 381 kts 216°
2026-04-22 20:36 -7.26762 -34.75093 16452 ft 378 kts 216°
2026-04-22 20:36 -7.28857 -34.76718 15957 ft 376 kts 216°
2026-04-22 20:36 -7.30926 -34.78323 15476 ft 374 kts 216°
2026-04-22 20:37 -7.32978 -34.79915 14992 ft 371 kts 216°
2026-04-22 20:37 -7.35018 -34.81498 14512 ft 368 kts 216°
2026-04-22 20:37 -7.37025 -34.83055 14039 ft 361 kts 216°
2026-04-22 20:37 -7.38987 -34.84577 13588 ft 355 kts 216°
2026-04-22 20:38 -7.40943 -34.86092 13117 ft 349 kts 215°
2026-04-22 20:38 -7.42865 -34.87584 12657 ft 344 kts 215°
2026-04-22 20:38 -7.44723 -34.89028 12215 ft 338 kts 215°
2026-04-22 20:38 -7.46592 -34.90482 11772 ft 333 kts 216°
2026-04-22 20:39 -7.48389 -34.91878 11351 ft 328 kts 216°
2026-04-22 20:39 -7.50195 -34.93281 10918 ft 323 kts 216°
2026-04-22 20:39 -7.51958 -34.94652 10497 ft 318 kts 216°
2026-04-22 20:39 -7.53708 -34.96012 10095 ft 313 kts 216°
2026-04-22 20:40 -7.55414 -34.97339 9926 ft 300 kts 215°
2026-04-22 20:40 -7.57020 -34.98589 9850 ft 285 kts 215°
2026-04-22 20:40 -7.58573 -34.99797 9544 ft 284 kts 215°
2026-04-22 20:40 -7.60173 -35.01036 9174 ft 289 kts 215°
2026-04-22 20:41 -7.61766 -35.02272 8811 ft 289 kts 215°
2026-04-22 20:41 -7.63362 -35.03514 8455 ft 288 kts 216°
2026-04-22 20:41 -7.64945 -35.04745 8097 ft 288 kts 216°
2026-04-22 20:41 -7.66590 -35.05916 7734 ft 286 kts 208°
2026-04-22 20:42 -7.68429 -35.06598 7388 ft 279 kts 183°
2026-04-22 20:42 -7.70317 -35.06372 7067 ft 273 kts 162°
2026-04-22 20:42 -7.72128 -35.05739 6715 ft 272 kts 158°
2026-04-22 20:42 -7.73901 -35.05076 6365 ft 272 kts 159°
2026-04-22 20:43 -7.75709 -35.04442 6014 ft 271 kts 160°
2026-04-22 20:43 -7.77492 -35.03854 5673 ft 270 kts 161°
2026-04-22 20:43 -7.79284 -35.03279 5333 ft 269 kts 161°
2026-04-22 20:43 -7.81081 -35.02703 5016 ft 267 kts 161°
2026-04-22 20:44 -7.82815 -35.02146 4883 ft 257 kts 161°
2026-04-22 20:44 -7.84494 -35.01606 4806 ft 246 kts 161°
2026-04-22 20:44 -7.86100 -35.01088 4698 ft 237 kts 161°
2026-04-22 20:44 -7.87673 -35.00571 4433 ft 236 kts 161°
2026-04-22 20:45 -7.89230 -35.00028 4153 ft 233 kts 159°
2026-04-22 20:45 -7.90739 -34.99485 3893 ft 230 kts 160°
2026-04-22 20:45 -7.92260 -34.98977 3717 ft 222 kts 162°
2026-04-22 20:45 -7.93698 -34.98515 3565 ft 212 kts 161°
2026-04-22 20:46 -7.96471 -34.97608 3010 ft 207 kts 161°
2026-04-22 20:46 -7.97843 -34.97158 2739 ft 205 kts 161°
2026-04-22 20:46 -7.99186 -34.96719 2474 ft 201 kts 161°
2026-04-22 20:47 -8.00474 -34.96299 2238 ft 186 kts 161°
2026-04-22 20:47 -8.01682 -34.95904 1958 ft 175 kts 161°
2026-04-22 20:47 -8.02794 -34.95539 1743 ft 162 kts 160°
2026-04-22 20:47 -8.03834 -34.95197 1551 ft 152 kts 160°
2026-04-22 20:48 -8.04845 -34.94865 1346 ft 152 kts 160°
2026-04-22 20:48 -8.05822 -34.94546 1157 ft 153 kts 160°
2026-04-22 20:48 -8.06850 -34.94210 958 ft 154 kts 161°
2026-04-22 20:48 -8.07876 -34.93876 759 ft 155 kts 160°
2026-04-22 20:49 -8.08910 -34.93535 557 ft 154 kts 160°
2026-04-22 20:49 -8.09923 -34.93207 371 ft 153 kts 160°
2026-04-22 20:49 -8.10957 -34.92874 163 ft 152 kts 160°
2026-04-22 20:49 -8.11941 -34.92548 52 ft 142 kts 160°
2026-04-22 20:50 -8.12740 -34.92284 43 ft 85 kts 162°
2026-04-22 20:50 -8.13102 -34.92164 42 ft 34 kts 161°
2026-04-22 20:50 -8.13249 -34.92065 42 ft 18 kts 131°
2026-04-22 20:50 -8.13292 -34.92001 42 ft 7 kts 96°
2026-04-22 20:51 -8.13254 -34.91964 42 ft 9 kts 351°
2026-04-22 20:51 -8.13178 -34.91988 42 ft 12 kts 341°
2026-04-22 20:51 -8.13102 -34.92013 42 ft 5 kts 343°
2026-04-22 20:51 -8.13077 -34.92010 42 ft 4 kts 51°
2026-04-22 20:52 -8.13064 -34.91976 42 ft 4 kts 71°
2026-04-22 20:52 -8.13058 -34.91958 42 ft 0 kts 72°
2026-04-22 20:52 -8.13056 -34.91952 42 ft 0 kts 72°